Location: Kimberly
(42.5380°N, 114.3640°W)
Time: 22:17:01
(UTC-06:00)

X-37B - Pass Details

Date: 01 August 2021
Orbit: 381 x 393 km, 45.0° (Epoch: 29 August)

Event Time Altitude Azimuth Distance (km) Brightness Sun altitude
Exits shadow 05:13:06 21° 201° (SSW) 920 2.0 -12.8°
Maximum altitude 05:14:36 33° 151° (SSE) 659 1.6 -12.6°
Drops below altitude 10° 05:17:28 10° 85° (E) 1,394 4.3 -12.1°
Sets 05:19:38 0° 75° (ENE) 2,250 5.8 -11.8°
